Location: Bemmer
(51.5498°N, 5.6249°E)
Time: 12:16:59
(UTC+00:00)

Meteor 2-4 Rocket - Pass Details

Date: 03 March 2021
Orbit: 799 x 908 km, 81.2° (Epoch: 11 April)

Event Time Altitude Azimuth Distance (km) Brightness Sun altitude
Rises 18:44:20 0° 347° (NNW) 3,481 7.2 -13.6°
Reaches altitude 10° 18:46:46 10° 347° (NNW) 2,553 6.5 -14.0°
Maximum altitude 18:52:37 89° 260° (W) 904 3.8 -14.9°
Drops below altitude 10° 18:58:32 10° 170° (S) 2,582 6.0 -15.8°
Sets 19:01:00 0° 170° (S) 3,523 6.7 -16.2°
